{"data":{"norad_id":63677,"intl_designator":"2025-085P","name":"STARLINK-33816","alt_names":[],"object_type":"PAYLOAD","status":"ACTIVE","operator":null,"country":"US","launch_date":"2025-04-28","launch_site_code":"AFETR","launch_vehicle":null,"mission":null,"orbit_class":"UNKNOWN","rcs_meters":null,"size_class":null,"mass_kg":null,"dimensions":null,"purposes":["comms"],"wikipedia_slug":null,"has_3d_model":false,"image_url":null,"decayed_at":null,"tle_current":{"epoch":"2026-09-20T13:50:22.470144Z","epoch_age_seconds":146218,"freshness":"FRESH","line1":"1 63677U 25085P   26263.57664896  .00013219  00000+0  48880-3 0  9995","line2":"2 63677  43.0017  10.4438 0001300 269.6592  90.4111 15.27594604 78777","mean_motion":15.27594604,"eccentricity":0.00013,"inclination_deg":43.0017,"raan_deg":10.4438,"arg_perigee_deg":269.6592,"mean_anomaly_deg":90.4111,"bstar":0.0004888,"rev_number":7877,"period_min":94.265847511465,"perigee_km":482.1134182506,"apogee_km":483.89731526595,"semimajor_km":6861.1423667583,"source":"CELESTRAK","updated_at":"2026-09-21T09:00:35.059723Z"}}}